STARLINK-30494, 57970

Orbit data source: Space-Track

STARLINK-30494, 57970 is a payload satellite owned by SpaceX/Seattle (US) in LEO that was launched on Sat, 30 Sep 2023 UTC via an FALCON 9 launch vehicle from the Air Force Eastern Test Range (AFETR). Payload-class satellites include a variety of spacecraft equipped with specific instruments for various scientific and technological missions. These include communications satellites like Starlink; space stations such as the ISS; scientific satellites like the Hubble; Earth observation satellites from companies like Planet Labs, Umbra, and HawkEye 360; GPS; miniature CubeSats for education and research; and military/defense satellites.

Loading next visibility...
Identifier
57970, 2023-151G
Orbit
LEO
Country
Flag of USUS
Related business
Manufacturer
SpaceX/Seattle
Mission
Operational Commercial Communications
Bus & Motor
STARLINK V2M, Unknown motor
Mass
730 kg wet, ~700 kg dry
Launch date (UTC)
2023-09-30 (3 years ago)
Launch vehicle
FALCON 9
Launch site
Air Force Eastern Test Range (AFETR)
Object type
Payload
Rocket body
Debris
Shape & HBR
Box + 2 Pan, 17.7 m
Radar Cross Section
33.884 m², Large (>1 m²)

Expand to show TLE details & history
Last TLE update: 1 day ago

TLE from 1 day ago
0 STARLINK-30494
1 57970U 23151G   26236.26868398  .00000202  00000-0  16866-4 0  9994
2 57970  43.0028 324.1554 0001487 272.6953  87.3728 15.27573210163081
Epoch: 2026-08-24T06:26Z
TLE epoch observation values (Epoch: 2026-08-24T06:26:54.295Z)
Latitude
-0.00007°
Longitude
-105.12372°
Altitude
482.799 km
Speed
7.626 km/s
True Right ascension
21h 36m 37s
True Declination
0° 00' 00"
Sunlit
Object was in full shadow at epoch
Visualization orbit readout
Latitude
Unknown
Longitude
Unknown
Altitude
Unknown
Speed
Unknown
Apparent Right ascension
Unknown
Apparent Declination
Unknown
Sunlit
N/A
Visualization observer readout
Local Sidereal Time
02:30:36
Azimuth
Unknown
Elevation
Unknown
Doppler factor
Unknown
Orbital elements
Apogee altitude
486.035 km
Perigee altitude
483.994 km
Semi-major axis
6,863.151 km
Eccentricity
0.00015
Inclination
43.0028°
RAAN
324.1554°
Arg. of periapsis
272.6953°
True anomaly
87.38982°
Mean anomaly
87.3728°
Eccentric anomaly
87.38131°
Mean motion
3.81731 °/min
Orbital period
94.31 mins
BSTAR
0.000016866
Loading maneuver chart data...
Computing Atmospheric mass density...
Loading historical data...
Loading historical data...
Loading historical data...
Loading historical data...
Loading historical data...
Loading historical data...
Loading historical data...

Documentation

Showing up to 5 results
|